User: anonymous   Login
Location: Unspecified
(0.0000°N, 0.0000°E)
Time: 00:09:01
(UTC+00:00)
Language:

PRATHAM - Orbit

View from above orbital plane
View from above orbital plane
View from above satellite
View from above satellite

Ground track
Ground track

The orbit data is extracted from the following two-line orbital elements,

1 41783U 16059A   17264.74236847 +.00000085 +00000-0 +26050-4 0  9995
2 41783 098.1575 325.0688 0032910 216.2383 143.6590 14.62860303052718
Epoch (UTC): 21 September 2017 17:49:00
Eccentricity: 0.0032910
inclination: 98.1575°
perigee height: 661 km
apogee height: 707 km
right ascension of ascending node: 325.0688°
argument of perigee: 216.2383°
revolutions per day: 14.62860303
mean anomaly at epoch: 143.6590°
orbit number at epoch: 5271

The dashed part of the orbit path shows where the satellite is in the earth's shadow,  

DLR